EN

Hourly Weather Wlora

Today, 25 January, Monday

Time Temperature Precipitation Wind Pressure Humidity
00:00 +12°C° 0.9 mm 13 mps 750 mmHg 83%
01:00 +12°C° 0.9 mm 11 mps 750 mmHg 80%
02:00 +11°C° 0.7 mm 10 mps 751 mmHg 83%
03:00 +10°C° 0.7 mm 9 mps 751 mmHg 85%
04:00 +10°C° 0.7 mm 9 mps 752 mmHg 87%
05:00 +10°C° 0.4 mm 8 mps 753 mmHg 86%
06:00 +9°C° 0.4 mm 8 mps 753 mmHg 84%
07:00 +9°C° 0.4 mm 8 mps 754 mmHg 83%
08:00 +10°C° 0.1 mm 9 mps 752 mmHg 71%
09:00 +10°C° 0.1 mm 8 mps 753 mmHg 68%
10:00 +10°C° 0.1 mm 7 mps 754 mmHg 64%
11:00 +11°C° 0.2 mm 8 mps 754 mmHg 65%
12:00 +11°C° 0.2 mm 9 mps 754 mmHg 65%
13:00 +11°C° 0.2 mm 10 mps 754 mmHg 66%
14:00 +9°C° 1.9 mm 10 mps 754 mmHg 72%
15:00 +8°C° 1.9 mm 9 mps 754 mmHg 78%
16:00 +7°C° 1.9 mm 9 mps 754 mmHg 85%
17:00 +7°C° 0.3 mm 10 mps 755 mmHg 78%
18:00 +8°C° 0.3 mm 12 mps 755 mmHg 70%
19:00 +8°C° 0.3 mm 13 mps 756 mmHg 63%
20:00 +7°C° 0.1 mm 11 mps 756 mmHg 68%
21:00 +7°C° 0.1 mm 10 mps 757 mmHg 72%
22:00 +6°C° 0.1 mm 9 mps 758 mmHg 77%
23:00 +6°C° 0.6 mm 8 mps 758 mmHg 81%

Tomorrow, 26 January, Tuesday

Time Temperature Precipitation Wind Pressure Humidity
00:00 +6°C° 0.6 mm 8 mps 758 mmHg 84%
01:00 +5°C° 0.6 mm 7 mps 759 mmHg 87%
02:00 +6°C° 0.5 mm 7 mps 759 mmHg 86%
03:00 +6°C° 0.5 mm 7 mps 759 mmHg 85%
04:00 +7°C° 0.5 mm 6 mps 759 mmHg 84%
05:00 +7°C° 0.1 mm 6 mps 759 mmHg 80%
06:00 +7°C° 0.1 mm 6 mps 760 mmHg 77%
07:00 +7°C° 0.1 mm 6 mps 760 mmHg 73%
08:00 +7°C° 0.1 mm 5 mps 760 mmHg 70%
09:00 +8°C° 0.1 mm 5 mps 761 mmHg 68%
10:00 +8°C° 0.1 mm 5 mps 761 mmHg 65%
11:00 +8°C° 0.1 mm 5 mps 761 mmHg 67%
12:00 +8°C° 0.1 mm 5 mps 761 mmHg 69%
13:00 +8°C° 0.1 mm 6 mps 761 mmHg 71%
14:00 +8°C° 0 mm 6 mps 761 mmHg 71%
15:00 +8°C° 0 mm 6 mps 761 mmHg 71%
16:00 +7°C° 0 mm 6 mps 761 mmHg 70%
17:00 +7°C° 0 mm 6 mps 761 mmHg 70%
18:00 +5°C° 0 mm 6 mps 762 mmHg 70%
19:00 +4°C° 0 mm 6 mps 762 mmHg 70%
20:00 +4°C° 0 mm 6 mps 762 mmHg 68%
21:00 +4°C° 0 mm 6 mps 762 mmHg 67%
22:00 +3°C° 0 mm 5 mps 763 mmHg 66%
23:00 +3°C° 0 mm 5 mps 763 mmHg 66%

Day after tomorrow, 27 January, Wednesday

Time Temperature Precipitation Wind Pressure Humidity
00:00 +3°C° 0 mm 5 mps 762 mmHg 65%
01:00 +3°C° 0 mm 5 mps 762 mmHg 65%
02:00 +3°C° 0 mm 5 mps 762 mmHg 64%
03:00 +3°C° 0 mm 5 mps 762 mmHg 63%
04:00 +3°C° 0 mm 5 mps 762 mmHg 62%
05:00 +3°C° 0 mm 5 mps 762 mmHg 60%
06:00 +3°C° 0 mm 5 mps 762 mmHg 58%
07:00 +4°C° 0 mm 4 mps 762 mmHg 55%
08:00 +5°C° 0 mm 4 mps 762 mmHg 51%
09:00 +6°C° 0 mm 4 mps 762 mmHg 46%
10:00 +8°C° 0 mm 3 mps 762 mmHg 42%
11:00 +9°C° 0 mm 3 mps 762 mmHg 47%
12:00 +8°C° 0 mm 4 mps 761 mmHg 52%
13:00 +8°C° 0 mm 4 mps 761 mmHg 57%
14:00 +8°C° 0 mm 4 mps 761 mmHg 59%
15:00 +8°C° 0 mm 4 mps 761 mmHg 62%
16:00 +7°C° 0 mm 4 mps 761 mmHg 64%
17:00 +7°C° 0 mm 4 mps 761 mmHg 67%
18:00 +7°C° 0 mm 3 mps 761 mmHg 70%
19:00 +5°C° 0 mm 3 mps 762 mmHg 73%
20:00 +5°C° 0 mm 3 mps 762 mmHg 72%
21:00 +5°C° 0 mm 3 mps 763 mmHg 71%
22:00 +5°C° 0 mm 4 mps 763 mmHg 70%
23:00 +5°C° 0 mm 3 mps 763 mmHg 69%

28 January, Thursday

Time Temperature Precipitation Wind Pressure Humidity
00:00 +5°C° 0 mm 3 mps 763 mmHg 67%
01:00 +4°C° 0 mm 3 mps 763 mmHg 66%
02:00 +4°C° 0 mm 3 mps 763 mmHg 67%
03:00 +4°C° 0 mm 3 mps 763 mmHg 69%
04:00 +4°C° 0 mm 4 mps 763 mmHg 70%
05:00 +5°C° 0 mm 4 mps 763 mmHg 71%
06:00 +5°C° 0 mm 4 mps 764 mmHg 72%
07:00 +5°C° 0 mm 5 mps 764 mmHg 73%
08:00 +6°C° 0 mm 5 mps 764 mmHg 70%
09:00 +7°C° 0 mm 4 mps 764 mmHg 68%
10:00 +8°C° 0 mm 4 mps 764 mmHg 65%
11:00 +10°C° 0 mm 4 mps 764 mmHg 63%
12:00 +10°C° 0 mm 4 mps 764 mmHg 61%
13:00 +11°C° 0 mm 4 mps 764 mmHg 59%
14:00 +10°C° 0 mm 3 mps 764 mmHg 62%
15:00 +10°C° 0 mm 3 mps 764 mmHg 65%
16:00 +10°C° 0 mm 2 mps 763 mmHg 68%
17:00 +9°C° 0 mm 2 mps 763 mmHg 70%
18:00 +8°C° 0 mm 2 mps 764 mmHg 72%
19:00 +7°C° 0 mm 2 mps 764 mmHg 74%

29 January, Friday

Time Temperature Precipitation Wind Pressure Humidity

30 January, Saturday

Time Temperature Precipitation Wind Pressure Humidity
Show more

We Need Your Consent

Meteoprog and our Service Providers may store and access personal data such as cookies, device identifiers or other similar technologies on your device and process such data to personalise content and ads, as well as provide social media features and to analyse the traffic.

  • Store and/or access information on your device

    Cookies, device identifiers or other information can be stored or accessed on your device for the purposes indicated above.

  • Personalised ads and content, ad and content measurement, audience insights, and products development

    Ads and content can be personalised based on a profile. More data can be added to better personalise ads and content. Ad and content performance can be measured. Insights about the audience who saw the ads and content can be derived. Such data can be used to develop or improve user’s experience, systems and software.

By clicking ‘I Agree’ you will allow the use of indicated cookies, device identifiers, web beacons or other similar technologies. Your settings can be changed in the browser on your device.

For certain purposes, legitimate interests may be relied on, rather than consent. You can read more about this in our Privacy and Cookie Policy.